Flag for Gibraltar Weather past 2 weeks in Gibraltar, Gibraltar

Now
57 °F

Clear.


Feels Like: 55 °F
Forecast: 53 / 62 °F
Wind: 10 mph from Northwest

Location: Gibraltar Airport

Current Time: Jan 28, 2015 at 12:18:19 AM

Latest Report: Jan 27, 2015 at 11:50 PM


Visibility: N/A

Pressure: 30.27 "Hg

Humidity: 63%

Dew point: 45 °F

Location of GibraltarLocation

Historic Weather in Gibraltar — Graph

°F

Gibraltar temperature yesterday

Maximum temperature yesterday: 64 °F (at 1:50 PM)
Minimum temperature yesterday: 48 °F (at 4:50 AM)
Average temperature yesterday: 56 °F

Past Weeks' High & Low Weather Summary

 TemperatureHumidityPressure
High64 °F (Jan 27, 1:50 PM)100% (Jan 15, 3:50 AM)30.42 "Hg (Jan 15, 3:50 AM)
Low45 °F (Jan 25, 4:50 AM)27% (Jan 25, 11:50 AM)29.62 "Hg (Jan 19, 5:50 AM)
Average54 °F69%30.16 "Hg
* Reported Jan 12 10:50 PM — Jan 27 10:50 PM, Gibraltar, Weather by CustomWeather, © 2014

Note: Actual official high and low records may vary slightly from our data, if they occured in-between our weather recording intervals... More about our weather records

Advertising

Gibraltar weather history for previous 24 hours

 ConditionsComfort  
Time TempWeatherWind HumidityBarometerVisibility
10:50 PM
Jan 27
57 °FPassing clouds.10 mph59%30.27 "HgN/A
9:50 PM57 °FPassing clouds.10 mph63%30.30 "HgN/A
8:50 PM57 °FPassing clouds.12 mph67%30.27 "HgN/A
7:50 PM59 °FPassing clouds.9 mph59%30.30 "HgN/A
6:50 PM59 °FPassing clouds.13 mph63%30.27 "HgN/A
5:50 PM63 °FScattered clouds.14 mph56%30.27 "HgN/A
4:50 PM63 °FPartly sunny.16 mph56%30.27 "HgN/A
3:50 PM63 °FPartly sunny.16 mph59%30.27 "HgN/A
2:50 PM63 °FPartly sunny.15 mph56%30.30 "HgN/A
1:50 PM64 °FPartly sunny.9 mph52%30.30 "HgN/A
12:50 PM61 °FPartly sunny.10 mph68%30.33 "HgN/A
11:50 AM59 °FScattered clouds.8 mph59%30.36 "HgN/A
10:50 AM57 °FScattered clouds.7 mph59%30.36 "HgN/A
9:50 AM52 °FPassing clouds.7 mph67%30.36 "HgN/A
8:50 AM52 °FPassing clouds.7 mph67%30.33 "HgN/A
7:50 AM50 °FPassing clouds.7 mph76%30.33 "HgN/A
6:50 AM50 °FPassing clouds.7 mph82%30.33 "HgN/A
5:50 AM50 °FClear.9 mph82%30.30 "HgN/A
4:50 AM48 °FClear.9 mph87%30.30 "HgN/A
3:50 AM50 °FClear.8 mph88%30.33 "HgN/A
2:50 AM50 °FClear.9 mph88%30.33 "HgN/A
1:50 AM52 °FClear.8 mph82%30.36 "HgN/A
12:50 AM52 °FClear.6 mph82%30.36 "HgN/A
Weather by CustomWeather, © 2014

See weather overviewHow to use our weather pages